Location: Piotrkow Trybunalski
(51.4000°N, 19.6830°E)
Time: 07:09:18
(UTC+02:00)

STRAND 1 - Pass Details

Date: 27 February 2024
Orbit: 764 x 779 km, 98.4° (Epoch: 24 April)

Event Time Altitude Azimuth Distance (km) Brightness Sun altitude
Rises 18:11:31 0° 16° (NNE) 3,271 ? -9.2°
Reaches altitude 10° 18:13:52 10° 19° (NNE) 2,337 ? -9.6°
Maximum altitude 18:19:00 68° 103° (ESE) 837 ? -10.4°
Drops below altitude 10° 18:24:04 10° 186° (S) 2,310 ? -11.2°
Sets 18:26:23 0° 189° (S) 3,230 ? -11.5°
